Location: Le Moustier
(44.1000°N, 6.5167°E)
Time: 14:35:22
(UTC+00:00)

SL-16 R/B - Pass Details

Date: 13 December 2025
Orbit: 984 x 1007 km, 99.8° (Epoch: 19 January)

Event Time Altitude Azimuth Distance (km) Brightness Sun altitude
Rises 17:27:59 0° 7° (N) 3,731 5.3 -15.8°
Reaches altitude 10° 17:30:44 10° 358° (N) 2,774 4.7 -16.3°
Maximum altitude 17:36:04 31° 298° (WNW) 1,662 4.2 -17.2°
Drops below altitude 10° 17:41:22 10° 239° (WSW) 2,747 6.0 -18.2°
Sets 17:44:05 0° 229° (SW) 3,689 6.7 -18.6°
